Regional Weather Roundup
Issued by NWS Wakefield, VA

Home | Current Version | Previous Version | Graphics & Text | Print | Product List | Glossary On
Versions: 1 2 3 4 5 6 7 8 9 10 11 12 13 14 15 16 17 18 19 20 21 22 23 24 25 26 27 28 29 30 31 32 33 34 35 36 37 38 39 40 41 42 43 44 45 46 47 48 49 50
000
ASUS41 KAKQ 031815
RWRAKQ

REGIONAL WEATHER ROUNDUP
NATIONAL WEATHER SERVICE WAKEFIELD VA
200 PM EDT MON AUG 03 2015

Note: "fair" indicates few or no clouds below 12,000 feet with no
significant weather and/or obstructions to visibility. * = Denotes
station may not report precipitation (e.g., rain,snow,etc.),
thunder or fog.

VAZ042-051-052>054-056-031900-
NORTHERN VIRGINIA

CITY           SKY/WX    TMP DP  RH WIND       PRES   REMARKS
WASH NATIONAL  PTSUNNY   90  66  45 S14       29.84F
DULLES         MOSUNNY   87  62  43 SW12      29.84F
FORT BELVOIR   SUNNY     89  63  41 S8        29.84F
QUANTICO       MOSUNNY   94  60  31 S7        29.82S
FREDERICKSBRG* SUNNY     91  64  40 SW9       29.85F
STAFFORD*      SUNNY     88  57  34 SW6       29.90S
WARRENTON      SUNNY     89  67  48 S5        29.85F
CULPEPER*      MOSUNNY   86  64  47 S3        29.86F
MANASSAS*      SUNNY     88  61  40 SW6       29.84
LEESBURG*      MOSUNNY   91  63  38 SW12      29.85F
WINCHESTER     PTSUNNY   91  59  33 S13G20    29.84F
FRONT ROYAL*   FAIR      86  63  45 S9        29.85S
LURAY*         FAIR      90  61  37 S12       29.87F
$$

VAZ048-049-060>072-079>083-031900-
CENTRAL AND SOUTH CENTRAL VIRGINIA

CITY           SKY/WX    TMP DP  RH WIND       PRES   REMARKS
RICHMOND       MOSUNNY   88  70  55 SW6       29.87F
CHESTERFIELD*  CLOUDY    88  64  45 S12       29.89F
PETERSBURG*    MOSUNNY   90  75  61 S7        29.88F HX 101
HANOVER        SUNNY     89  66  46 W8        29.89F
TAPPAHANNOCK*  PTSUNNY   85  67  55 CALM      29.88F
QUINTON*       MOCLDY    87  72  59 S6        29.87F
CHARLOTTSVILLE MOSUNNY   87  62  43 SW7       29.87F
GORDONSVILLE*  FAIR      88  64  45 S15       29.86F
ORANGE*        MOSUNNY   88  63  42 S9G17     29.88F
LOUISA*        SUNNY     90  63  40 SW7       29.87S
BUMPASS*       FAIR      89  64  44 S3        29.87F
FARMVILLE*     SUNNY     91  57  31 W6        29.88S
CREWE*         FAIR     N/A N/A N/A NW7       29.89F
FORT PICKETT*  FAIR      89  67  47 SW7       29.89F
CHASE CITY*    FAIR      90  70  51 SW3       29.89F HX  95
CLARKSVILLE*   CLOUDY    86  68  54 CALM      29.90F
SOUTH HILL*    SUNNY     89  70  54 S10       29.96F
LAWRENCEVILLE* FAIR      90  70  51 S6        29.88F HX  95
EMPORIA*       MOSUNNY   88  70  55 SE5       29.91F
$$

VAZ088>098-031900-
SOUTHEAST VIRGINIA

CITY           SKY/WX    TMP DP  RH WIND       PRES   REMARKS
NORFOLK        MOSUNNY   90  70  51 S10       29.88F HX  95
VIRGINIA BEACH MOSUNNY   92  70  48 SW12G17   29.88F HX  97
NORFOLK NAVAL  PTSUNNY   89  69  51 W7G16     29.90F
WEST POINT*    MOSUNNY   90  69  49 S7        29.89F HX  95
SALUDA*        FAIR      87  74  65 S7        29.88F
NEWPORT NEWS   SUNNY     90  72  55 SW13G22   29.88F HX  97
LANGLEY AFB    SUNNY     89  71  56 S10G20    29.88F HX  95
FORT EUSTIS    SUNNY     90  70  52 S10       29.87F HX  95
WILLIAMSBURG*  SUNNY     93  73  52 SW8       29.90S HX 102
HR EXEC AP*    FAIR      91  72  52 S8        29.91F HX  98
FRANKLIN*      MOSUNNY   91  69  49 S8        29.89F HX  95
WAKEFIELD      SUNNY     91  71  51 S6        29.89F HX  97
$$

VAZ020-022-025-037-045-031900-
WEST CENTRAL AND SOUTHWEST VIRGINIA

CITY           SKY/WX    TMP DP  RH WIND       PRES   REMARKS
STAUNTON*      MOSUNNY   89  57  33 SW7       29.92F
WAYNESBORO*    FAIR      83  60  45 SW8G16    29.92F
HOT SPRINGS VA MOSUNNY   75  58  53 SW8       30.05R
LYNCHBURG      SUNNY     86  59  39 VRB3      29.93F
DANVILLE       MOSUNNY   91  61  36 NW9       29.92F
SOUTH BOSTON*  FAIR      89  59  36 W3        29.90F
MARTINSVILLE   MOSUNNY   89  56  33 NW3       29.96S
ROANOKE        MOSUNNY   88  55  32 S9G20     29.94F
BLACKSBURG     SUNNY     81  61  50 SW5       30.02F
DUBLIN*          N/A     84  58  41 SW3       30.01F
MARION*        MOSUNNY   80  59  48 W8        30.05F
HILLSVILLE*    SUNNY     81  55  41 S8        30.03S
RICHLANDS*     FAIR      79  62  55 W8        30.04S
WISE*          SUNNY     82  55  39 S9G16     30.06R
ABINGDON*      MOSUNNY   83  56  40 SW8       30.02S
$$

MDZ021>025-VAZ099-100-031900-
SOUTHERN MARYLAND AND THE DELMARVA PENINSULA

CITY           SKY/WX    TMP DP  RH WIND       PRES   REMARKS
PATUXENT RIVER MOSUNNY   88  64  44 SW10      29.86F
BAY BRIDGE APT   N/A     88  59  37 S8        29.84F
LEONARDTOWN    SUNNY     86  64  48 S8        29.88F
DOVER          SUNNY     89  66  45 SW10      29.83F
GEORGETOWN     SUNNY     89  59  36 SW15      29.86F
EASTON         MOSUNNY   90  64  43 SW17G23   29.90S
CAMBRIDGE      SUNNY     88  63  42 S7        29.86F
SALISBURY      SUNNY     89  64  43 W14       29.86F
OCEAN CITY     MOSUNNY   85  75  72 S9G20     29.87F
WALLOPS ISLAND MOSUNNY   86  76  71 S17       29.88F HX  96
ACCOMACK*      MOSUNNY   88  79  74 SW10      29.88F HX 102
$$

NCZ012>017-030>032-031900-
NORTH CENTRAL AND EASTERN NORTH CAROLINA

CITY           SKY/WX    TMP DP  RH WIND       PRES   REMARKS
ROANOKE RAPIDS FAIR      90  68  48 SW9G16    29.90F
RALEIGH        PTSUNNY   91  67  44 SW12      29.93F
ELIZABETH CITY MOSUNNY   85  75  72 S10       29.93S
AHOSKIE*       MOSUNNY   89  68  49 S8        29.91S
EDENTON*         N/A     85  74  68 S7        29.93F
CURRITUCK*     PTSUNNY   86  72  61 S7        29.93S
KILL DEVIL HLS MOSUNNY   83  72  68 SW9G16    29.94S
MANTEO         MOSUNNY   80  72  78 SW20      29.95S
CAPE HATTERAS  LGT RAIN  75  72  90 SW14G20   30.00F
TARBORO*         N/A     91  71  52 S5        29.92F HX  96
GOLDSBORO      MOSUNNY   92  71  50 S7        29.90F HX  97
WASHINGTON     SUNNY     87  72  61 S6        29.93F
GREENVILLE     MOSUNNY   90  72  55 SW8       29.94F HX  96
NEW BERN       PTSUNNY   78  71  79 S10       29.98S
WILMINGTON     TSTM      74  72  93 SE5       29.98R
$$

VAZ048-031900-
ELSEWHERE

CITY           SKY/WX    TMP DP  RH WIND       PRES   REMARKS
HARRISBURG PA  PTSUNNY   87  63  44 SW7       29.80F
BALTIMORE      MOSUNNY   90  57  32 SW9       29.82F
ANNAPOLIS      SUNNY     88  58  36 W3        29.83F
ANDREWS AFB    SUNNY     89  60  37 VRB3      29.84F
PHILADELPHIA   MOSUNNY   90  61  37 S15       29.82F
HENDERSON NC   MOSUNNY   90  65  43 S7G16     29.91F
GREENSBORO     PTSUNNY   87  65  47 W10       29.93F
ROCKY MOUNT    SUNNY     92  67  43 MISG      29.91F HX  95
$$

VAZ100-031900-
MARINE

STATION/POSITION TIME  TEMP    WIND        PRES    WAVE   SWELL
                       AIR SEA DIR/SP/G            HT/PER HT/PER
                 (UTC) (F)     (DEG/KT/KT) (MB)    (FT/S) (FT/S)
BRANDYWINE LGT   1700   81 74  240/  9/ 10 1011.4F
CAPE MAY NJ      1700   82 76  220/  7/  9 1011.1F
LEWES DE         1700   87 73  230/  8/ 12 1011.1F
15NM E FENWICK I 1750   80 80  190/ 16/ 17 1011.6F   3/ 5   2/11
OCEAN-CITY-INLET 1700   80 77  200/ 11/ 15 1011.2F
WACHAPREAGUE VA  1700   82 84  200/ 11/ 14 1012.5F
THOMAS POINT MD  1700   83 81  190/ 13       N/A
GOOSES REEF MD   1800   85 82  220/ 10/ 12 1012.1F
COVE POINT MD    1700   84     270/  5/ 10 1012.3F
SOLOMONS ISLAND  1700      83                N/A
BISHOPS HEAD MD  1700   82 83  200/ 12/ 13 1010.8F
PINEY POINT MD   1700          330/  3/  4   N/A
POTOMAC MD       1800   85 84  240/  6/ 12 1010.4F   1/ 2
CAMBRIDGE MD     1700   85 84  230/ 10/ 12 1010.5F
LEWISETTA VA     1700   85 84  220/  7/  9 1011.3F
RAPPAHANNOCK LGT 1700          190/ 15/ 17 1012.9F
STINGRAY PT      1800   85 84  220/ 12/ 14 1011.9F   1
YORK RVR RNG VA  1700   84     210/ 11/ 12 1011.9F
YORKTOWN VA      1700   86 84  200/  9/ 13 1012.1F
JAMESTOWN VA     1800   86 86  220/  8/ 14   N/A
DOMINION TERM VA 1700   85     230/  8/  9 1012.5F
KIPTOPEKE VA     1700      82  240/  4/  5   N/A
CHES BAY BRIDGE  1700   85 77  210/  7/  9 1012.3F
CAPE HENRY VA    1700   87     210/  5/ 10   N/A
CHESAPEAKE LGHT  1700   80     180/ 17/ 18 1013.6F
WILLOUBY STN VA  1700   85     240/  8/  8 1013.5F
CAPE HENRY BUOY  1758      82                N/A     3/12   2/12
1ST LANDING BUOY 1800      82              1011.8F   1/ 4
CAPE CHARLES BUO 1726      81                N/A     2/12   2/12
OFFSHORE WE BUOY 1711      82                N/A     3/ 5   2/11
64NM E OF VA BCH 1750   78 81  220/ 17/ 19 1013.5F   4/ 5   2/11
DUCK PIER NC     1700   79 65  200/ 14/ 17 1012.9F
44100 DUCK FRF   1724      80                N/A     3/11   2/11
44056 DUCK FRF   1711      80                N/A     2/12   2/12
OREGON INLET NC  1700   77 82  210/ 18/ 22 1014.2F
HATTERAS NC      1700   73 81  170/  9/ 12 1015.6F



USA.gov is the U.S. government's official web portal to all federal, state and local government web resources and services.